QIANFAN-51 (62252 NORAD) Tracking and Keplerian Element Data

This shows tracking and keplerian element data for the satellite.

Feedback or suggestion? Click here.




ElementValue
Catalog62252
NameQIANFAN-51
Epoch Orbit2558
Epoch Day34.84674625
Epoch Year2025
RAAN73.1754
Inclination88.9888
Eccentricity0.0015537
Argument of Perigee30.2678
Mean Anonmoly329.9406
Mean Motion14.20054087
Decay Rate4.41E-06
L11 62252U 24232R 25034.84674625 .00000441 00000+0 20038-3 0 9990
L22 62252 88.9888 73.1754 0015537 30.2678 329.9406 14.20054087 25586



Live tracking and technical data element details for QIANFAN-51 (NORAD 62252). QIANFAN-51 can be tracked NOW for your location showing map with azimuth and elevation plus other details from your city location.







IsCatalogInMostPopularTable: catalog: 62252, numindb: 31
Update: records affected: 1



GetName: 62252 QIANFAN-51

Hit Count: updated at: Sun, 18 May 2025 22:53:51 GMT